Location: Newark
(58.8333°N, 23.5833°E)
Time: 10:31:06
(UTC+00:00)

S-56A Canister/Altair - Pass Details

Date: 26 November 2019
Orbit: 633 x 2499 km, 38.9° (Epoch: 06 December)

Event Time Altitude Azimuth Distance (km) Brightness Sun altitude
Rises 15:42:24 0° 246° (WSW) 5,481 13.8 -14.0°
Reaches altitude 10° 15:47:30 10° 233° (SW) 4,136 12.4 -14.6°
Maximum altitude 15:54:23 20° 192° (SSW) 2,874 10.7 -15.5°
Drops below altitude 10° 15:59:47 10° 148° (SSE) 3,129 10.5 -16.2°
Enters shadow 16:02:43 - 133° (SE) 3,747 10.7 -16.5°
